{"data":{"norad_id":67548,"epoch":"2026-09-19T22:07:12.829728Z","epoch_age_seconds":122224,"freshness":"FRESH","line1":"1 67548U 26014S   26262.92167627  .00019182  00000+0  59480-3 0  9990","line2":"2 67548  97.2844 148.3593 0001785  89.8859 270.2589 15.33454669 38557","mean_motion":15.33454669,"eccentricity":0.0001785,"inclination_deg":97.2844,"raan_deg":148.3593,"arg_perigee_deg":89.8859,"mean_anomaly_deg":270.2589,"bstar":0.0005948,"rev_number":3855,"period_min":93.905612543412,"perigee_km":464.29281471196,"apogee_km":466.73599826407,"semimajor_km":6843.651406488,"source":"CELESTRAK","updated_at":"2026-09-20T09:00:43.570445Z"}}